| time (UTC) | temp F | wind direction | speed MPH | gust MPH | rain 1hr in | rain 24hr in | rain mn in | humidity % | barometer mb |
| 20260509222529 | 85 | 121 | 5.0 | 12.0 | 0.00 | 0.00 | 0.00 | 45 | 1008.4 |
| 20260509222025 | 85 | 87 | 9.0 | 14.0 | 0.00 | 0.00 | 0.00 | 46 | 1008.4 |
| 20260509221525 | 85 | 89 | 12.0 | 15.0 | 0.00 | 0.00 | 0.00 | 47 | 1008.4 |
| 20260509221025 | 85 | 93 | 5.0 | 15.0 | 0.00 | 0.00 | 0.00 | 47 | 1008.5 |
| 20260509220025 | 85 | 77 | 10.0 | 12.0 | 0.00 | 0.00 | 0.00 | 47 | 1008.5 |
| 20260509215525 | 85 | 70 | 9.0 | 14.0 | 0.00 | 0.00 | 0.00 | 48 | 1008.4 |
| 20260509214025 | 85 | 76 | 9.0 | 14.0 | 0.00 | 0.00 | 0.00 | 48 | 1008.4 |
| 20260509213525 | 85 | 91 | 10.0 | 14.0 | 0.00 | 0.00 | 0.00 | 50 | 1008.5 |
| 20260509212525 | 85 | 84 | 9.0 | 13.0 | 0.00 | 0.00 | 0.00 | 50 | 1008.6 |
| 20260509212026 | 85 | 111 | 10.0 | 13.0 | 0.00 | 0.00 | 0.00 | 51 | 1008.7 |
| 20260509211525 | 85 | 83 | 7.0 | 11.0 | 0.00 | 0.00 | 0.00 | 49 | 1008.8 |
| 20260509211025 | 85 | 89 | 3.0 | 14.0 | 0.00 | 0.00 | 0.00 | 48 | 1008.8 |
| 20260509210525 | 85 | 117 | 8.0 | 14.0 | 0.00 | 0.00 | 0.00 | 48 | 1008.9 |
| 20260509210025 | 86 | 86 | 12.0 | 12.0 | 0.00 | 0.00 | 0.00 | 50 | 1008.9 |
| 20260509205525 | 85 | 137 | 3.0 | 11.0 | 0.00 | 0.00 | 0.00 | 49 | 1009.0 |
| 20260509205025 | 85 | 82 | 8.0 | 13.0 | 0.00 | 0.00 | 0.00 | 48 | 1009.0 |
| 20260509204525 | 85 | 78 | 9.0 | 16.0 | 0.00 | 0.00 | 0.00 | 50 | 1009.1 |
| 20260509203525 | 86 | 99 | 8.0 | 11.0 | 0.00 | 0.00 | 0.00 | 48 | 1009.2 |
| 20260509203025 | 85 | 66 | 5.0 | 17.0 | 0.00 | 0.00 | 0.00 | 47 | 1009.2 |
| 20260509202527 | 85 | 57 | 13.0 | 17.0 | 0.00 | 0.00 | 0.00 | 48 | 1009.2 |
| 20260509202025 | 86 | 83 | 10.0 | 11.0 | 0.00 | 0.00 | 0.00 | 47 | 1009.2 |
| 20260509201525 | 85 | 103 | 8.0 | 10.0 | 0.00 | 0.00 | 0.00 | 42 | 1009.3 |
| 20260509201025 | 85 | 298 | 4.0 | 13.0 | 0.00 | 0.00 | 0.00 | 41 | 1009.3 |
| 20260509200525 | 86 | 60 | 9.0 | 13.0 | 0.00 | 0.00 | 0.00 | 44 | 1009.4 |
| 20260509200025 | 85 | 47 | 6.0 | 17.0 | 0.00 | 0.00 | 0.00 | 44 | 1009.4 |
| 20260509195525 | 85 | 58 | 12.0 | 17.0 | 0.00 | 0.00 | 0.00 | 42 | 1009.6 |
| 20260509195025 | 85 | 22 | 10.0 | 11.0 | 0.00 | 0.00 | 0.00 | 44 | 1009.6 |
| 20260509194525 | 85 | 6 | 3.0 | 12.0 | 0.00 | 0.00 | 0.00 | 45 | 1009.7 |
| 20260509194025 | 85 | 107 | 9.0 | 15.0 | 0.00 | 0.00 | 0.00 | 45 | 1009.8 |
| 20260509193025 | 84 | 58 | 5.0 | 14.0 | 0.00 | 0.00 | 0.00 | 49 | 1009.9 |
| 20260509192525 | 85 | 39 | 4.0 | 10.0 | 0.00 | 0.00 | 0.00 | 46 | 1010.0 |
| 20260509192025 | 85 | 265 | 4.0 | 7.0 | 0.00 | 0.00 | 0.00 | 45 | 1010.0 |
| 20260509191525 | 84 | 343 | 4.0 | 15.0 | 0.00 | 0.00 | 0.00 | 46 | 1010.1 |
| 20260509191025 | 84 | 63 | 7.0 | 15.0 | 0.00 | 0.00 | 0.00 | 47 | 1010.2 |
| 20260509190025 | 84 | 47 | 9.0 | 15.0 | 0.00 | 0.00 | 0.00 | 47 | 1010.2 |
| 20260509185525 | 84 | 43 | 14.0 | 15.0 | 0.00 | 0.00 | 0.00 | 51 | 1010.1 |
| 20260509185025 | 84 | 62 | 7.0 | 12.0 | 0.00 | 0.00 | 0.00 | 50 | 1010.2 |
| 20260509184525 | 84 | 78 | 3.0 | 7.0 | 0.00 | 0.00 | 0.00 | 55 | 1010.2 |
| 20260509184025 | 83 | 89 | 5.0 | 12.0 | 0.00 | 0.00 | 0.00 | 54 | 1010.3 |
| 20260509183026 | 83 | 15 | 10.0 | 14.0 | 0.00 | 0.00 | 0.00 | 53 | 1010.4 |
| 20260509182525 | 82 | 23 | 11.0 | 14.0 | 0.00 | 0.00 | 0.00 | 53 | 1010.4 |
| 20260509182025 | 82 | 46 | 7.0 | 14.0 | 0.00 | 0.00 | 0.00 | 58 | 1010.4 |
| 20260509181527 | 82 | 69 | 9.0 | 9.0 | 0.00 | 0.00 | 0.00 | 59 | 1010.5 |
| 20260509181025 | 82 | 58 | 9.0 | 10.0 | 0.00 | 0.00 | 0.00 | 59 | 1010.5 |
| 20260509180527 | 82 | 76 | 7.0 | 13.0 | 0.00 | 0.00 | 0.00 | 60 | 1010.6 |
| 20260509180025 | 81 | 50 | 6.0 | 13.0 | 0.00 | 0.00 | 0.00 | 58 | 1010.6 |
| 20260509175525 | 81 | 89 | 2.0 | 10.0 | 0.00 | 0.00 | 0.00 | 62 | 1010.7 |
| 20260509175025 | 81 | 36 | 9.0 | 10.0 | 0.00 | 0.00 | 0.00 | 60 | 1010.8 |
| 20260509174526 | 81 | 48 | 7.0 | 10.0 | 0.00 | 0.00 | 0.00 | 60 | 1010.9 |
| 20260509174025 | 81 | 320 | 6.0 | 10.0 | 0.00 | 0.00 | 0.00 | 59 | 1010.9 |
| 20260509173525 | 81 | 306 | 6.0 | 10.0 | 0.00 | 0.00 | 0.00 | 59 | 1011.0 |
| 20260509172526 | 80 | 17 | 9.0 | 13.0 | 0.00 | 0.00 | 0.00 | 60 | 1011.0 |
| 20260509172025 | 81 | 17 | 2.0 | 10.0 | 0.00 | 0.00 | 0.00 | 59 | 1011.1 |
| 20260509171025 | 80 | 359 | 13.0 | 13.0 | 0.00 | 0.00 | 0.00 | 59 | 1011.1 |
| 20260509170525 | 80 | 54 | 4.0 | 10.0 | 0.00 | 0.00 | 0.00 | 60 | 1011.2 |
| 20260509170025 | 80 | 272 | 4.0 | 10.0 | 0.00 | 0.00 | 0.00 | 61 | 1011.2 |
| 20260509165525 | 80 | 330 | 4.0 | 11.0 | 0.00 | 0.00 | 0.00 | 60 | 1011.2 |
| 20260509165025 | 79 | 24 | 6.0 | 11.0 | 0.00 | 0.00 | 0.00 | 61 | 1011.3 |
| 20260509164525 | 80 | 353 | 11.0 | 11.0 | 0.00 | 0.00 | 0.00 | 60 | 1011.3 |
| 20260509164025 | 80 | 345 | 4.0 | 10.0 | 0.00 | 0.00 | 0.00 | 59 | 1011.4 |
| 20260509163525 | 79 | 328 | 5.0 | 10.0 | 0.00 | 0.00 | 0.00 | 61 | 1011.4 |
| 20260509163025 | 80 | 7 | 7.0 | 10.0 | 0.00 | 0.00 | 0.00 | 58 | 1011.4 |
| 20260509162525 | 79 | 346 | 5.0 | 11.0 | 0.00 | 0.00 | 0.00 | 59 | 1011.4 |
| 20260509162025 | 79 | 356 | 5.0 | 11.0 | 0.00 | 0.00 | 0.00 | 61 | 1011.4 |
| 20260509161525 | 79 | 351 | 9.0 | 11.0 | 0.00 | 0.00 | 0.00 | 59 | 1011.4 |
| 20260509160525 | 78 | 275 | 5.0 | 10.0 | 0.00 | 0.00 | 0.00 | 61 | 1011.5 |
| 20260509155526 | 78 | 328 | 7.0 | 9.0 | 0.00 | 0.00 | 0.00 | 62 | 1011.4 |
| 20260509155025 | 78 | 287 | 7.0 | 9.0 | 0.00 | 0.00 | 0.00 | 62 | 1011.4 |
| 20260509154527 | 78 | 310 | 7.0 | 13.0 | 0.00 | 0.00 | 0.00 | 63 | 1011.3 |
| 20260509153526 | 77 | 270 | 9.0 | 11.0 | 0.00 | 0.00 | 0.00 | 63 | 1011.3 |
| 20260509153026 | 77 | 281 | 9.0 | 11.0 | 0.00 | 0.00 | 0.00 | 65 | 1011.2 |
| 20260509152526 | 77 | 299 | 4.0 | 9.0 | 0.00 | 0.00 | 0.00 | 65 | 1011.3 |
| 20260509152026 | 76 | 294 | 4.0 | 10.0 | 0.00 | 0.00 | 0.00 | 66 | 1011.3 |
| 20260509151526 | 76 | 290 | 4.0 | 10.0 | 0.00 | 0.00 | 0.00 | 67 | 1011.3 |
| 20260509151025 | 76 | 300 | 10.0 | 10.0 | 0.00 | 0.00 | 0.00 | 69 | 1011.3 |
| 20260509150525 | 76 | 272 | 6.0 | 10.0 | 0.00 | 0.00 | 0.00 | 67 | 1011.3 |
| 20260509150025 | 76 | 295 | 9.0 | 10.0 | 0.00 | 0.00 | 0.00 | 68 | 1011.4 |
| 20260509145526 | 76 | 300 | 6.0 | 10.0 | 0.00 | 0.00 | 0.00 | 69 | 1011.4 |
| 20260509145026 | 75 | 313 | 8.0 | 10.0 | 0.00 | 0.00 | 0.00 | 69 | 1011.4 |
| 20260509144526 | 75 | 317 | 6.0 | 10.0 | 0.00 | 0.00 | 0.00 | 72 | 1011.4 |
| 20260509144025 | 75 | 307 | 9.0 | 11.0 | 0.00 | 0.00 | 0.00 | 72 | 1011.3 |
| 20260509143525 | 75 | 309 | 8.0 | 11.0 | 0.00 | 0.00 | 0.00 | 72 | 1011.3 |
| 20260509143026 | 75 | 322 | 8.0 | 10.0 | 0.00 | 0.00 | 0.00 | 73 | 1011.3 |
| 20260509142525 | 75 | 308 | 6.0 | 11.0 | 0.00 | 0.00 | 0.00 | 74 | 1011.3 |
| 20260509141525 | 75 | 297 | 8.0 | 10.0 | 0.00 | 0.00 | 0.00 | 74 | 1011.3 |
| 20260509140025 | 73 | 303 | 8.0 | 10.0 | 0.00 | 0.00 | 0.00 | 78 | 1011.3 |
| 20260509135526 | 73 | 304 | 7.0 | 10.0 | 0.00 | 0.00 | 0.00 | 81 | 1011.3 |
| 20260509134526 | 71 | 301 | 5.0 | 8.0 | 0.00 | 0.00 | 0.00 | 86 | 1011.4 |
| 20260509134025 | 71 | 289 | 7.0 | 8.0 | 0.00 | 0.00 | 0.00 | 87 | 1011.4 |
| 20260509133526 | 71 | 306 | 7.0 | 8.0 | 0.00 | 0.00 | 0.00 | 88 | 1011.4 |
| 20260509133025 | 70 | 333 | 8.0 | 8.0 | 0.00 | 0.00 | 0.00 | 87 | 1011.4 |
| 20260509132525 | 70 | 324 | 7.0 | 9.0 | 0.00 | 0.00 | 0.00 | 88 | 1011.4 |
| 20260509132027 | 69 | 332 | 7.0 | 9.0 | 0.00 | 0.00 | 0.00 | 88 | 1011.3 |
| 20260509131525 | 69 | 340 | 5.0 | 8.0 | 0.00 | 0.00 | 0.00 | 88 | 1011.3 |
| 20260509131025 | 69 | 340 | 7.0 | 8.0 | 0.00 | 0.00 | 0.00 | 88 | 1011.3 |
| 20260509130525 | 69 | 349 | 7.0 | 7.0 | 0.00 | 0.00 | 0.00 | 89 | 1011.3 |
| 20260509130026 | 68 | 340 | 5.0 | 9.0 | 0.00 | 0.00 | 0.00 | 90 | 1011.3 |
| 20260509125527 | 68 | 340 | 5.0 | 9.0 | 0.00 | 0.00 | 0.00 | 91 | 1011.3 |
| 20260509125025 | 67 | 346 | 6.0 | 7.0 | 0.00 | 0.00 | 0.00 | 91 | 1011.2 |
| 20260509124526 | 67 | 337 | 5.0 | 6.0 | 0.00 | 0.00 | 0.00 | 92 | 1011.3 |
| 20260509124026 | 67 | 321 | 5.0 | 7.0 | 0.00 | 0.00 | 0.00 | 93 | 1011.3 |
| 20260509123525 | 66 | 334 | 5.0 | 7.0 | 0.00 | 0.00 | 0.00 | 94 | 1011.2 |
| 20260509122526 | 66 | 274 | 5.0 | 7.0 | 0.00 | 0.00 | 0.00 | 96 | 1011.2 |
| 20260509121026 | 66 | 287 | 4.0 | 6.0 | 0.00 | 0.00 | 0.00 | 97 | 1011.2 |
| 20260509120026 | 66 | 338 | 3.0 | 7.0 | 0.00 | 0.00 | 0.00 | 97 | 1011.1 |
| 20260509115525 | 66 | 279 | 5.0 | 7.0 | 0.00 | 0.00 | 0.00 | 98 | 1011.1 |
| 20260509115025 | 66 | 281 | 6.0 | 9.0 | 0.00 | 0.00 | 0.00 | 98 | 1011.0 |
| 20260509114526 | 67 | 293 | 5.0 | 9.0 | 0.00 | 0.05 | 0.00 | 98 | 1011.0 |
| 20260509114025 | 67 | 291 | 6.0 | 7.0 | 0.00 | 0.10 | 0.00 | 98 | 1010.9 |
| 20260509113025 | 67 | 273 | 6.0 | 9.0 | 0.00 | 0.21 | 0.00 | 98 | 1010.7 |
| 20260509112526 | 66 | 282 | 7.0 | 8.0 | 0.00 | 0.30 | 0.00 | 99 | 1010.7 |
| 20260509112026 | 66 | 294 | 7.0 | 8.0 | 0.00 | 0.35 | 0.00 | 99 | 1010.7 |
| 20260509111526 | 66 | 264 | 6.0 | 9.0 | 0.00 | 0.36 | 0.00 | 99 | 1010.7 |
| 20260509111025 | 66 | 261 | 7.0 | 9.0 | 0.00 | 0.36 | 0.00 | 98 | 1010.5 |
| 20260509110525 | 66 | 268 | 8.0 | 9.0 | 0.00 | 0.36 | 0.00 | 98 | 1010.4 |
| 20260509110025 | 66 | 260 | 8.0 | 8.0 | 0.00 | 0.36 | 0.00 | 98 | 1010.3 |
| 20260509105526 | 66 | 359 | 3.0 | 9.0 | 0.00 | 0.36 | 0.00 | 98 | 1010.0 |
| 20260509105026 | 66 | 5 | 7.0 | 10.0 | 0.00 | 0.36 | 0.00 | 97 | 1009.8 |
| 20260509104527 | 67 | 21 | 8.0 | 11.0 | 0.00 | 0.36 | 0.00 | 97 | 1009.8 |
| 20260509104025 | 67 | 15 | 10.0 | 11.0 | 0.00 | 0.36 | 0.00 | 97 | 1009.8 |
| 20260509103526 | 67 | 15 | 10.0 | 11.0 | 0.00 | 0.36 | 0.00 | 97 | 1009.9 |
| 20260509103026 | 67 | 1 | 10.0 | 11.0 | 0.00 | 0.36 | 0.00 | 98 | 1009.9 |
| 20260509102525 | 67 | 18 | 9.0 | 11.0 | 0.00 | 0.36 | 0.00 | 98 | 1009.8 |
| 20260509102025 | 67 | 8 | 7.0 | 9.0 | 0.00 | 0.36 | 0.00 | 98 | 1009.9 |
| 20260509101526 | 67 | 9 | 5.0 | 7.0 | 0.00 | 0.36 | 0.00 | 98 | 1010.0 |
| 20260509101026 | 67 | 15 | 5.0 | 9.0 | 0.00 | 0.36 | 0.00 | 98 | 1010.0 |
| 20260509100526 | 67 | 21 | 5.0 | 9.0 | 0.00 | 0.36 | 0.00 | 98 | 1009.7 |
| 20260509100025 | 67 | 1 | 8.0 | 11.0 | 0.00 | 0.36 | 0.00 | 98 | 1009.5 |
| 20260509095525 | 67 | 12 | 10.0 | 11.0 | 0.00 | 0.36 | 0.00 | 98 | 1009.2 |
| 20260509095026 | 67 | 6 | 10.0 | 12.0 | 0.00 | 0.36 | 0.00 | 97 | 1009.1 |
| 20260509094526 | 67 | 4 | 7.0 | 12.0 | 0.00 | 0.42 | 0.00 | 97 | 1009.0 |
| 20260509094026 | 67 | 11 | 10.0 | 12.0 | 0.00 | 0.42 | 0.00 | 97 | 1009.0 |
| 20260509093525 | 67 | 7 | 9.0 | 11.0 | 0.00 | 0.42 | 0.00 | 97 | 1008.9 |
| 20260509093025 | 67 | 10 | 8.0 | 11.0 | 0.00 | 0.42 | 0.00 | 96 | 1008.7 |
| 20260509091526 | 68 | 8 | 8.0 | 13.0 | 0.00 | 0.42 | 0.00 | 95 | 1008.7 |
| 20260509091026 | 68 | 25 | 9.0 | 14.0 | 0.00 | 0.42 | 0.00 | 95 | 1008.5 |
| 20260509090526 | 68 | 28 | 10.0 | 17.0 | 0.00 | 0.42 | 0.00 | 95 | 1008.4 |
| 20260509090026 | 68 | 26 | 12.0 | 21.0 | 0.00 | 0.42 | 0.00 | 94 | 1008.5 |
| 20260509085526 | 68 | 38 | 15.0 | 21.0 | 0.00 | 0.42 | 0.00 | 94 | 1008.4 |
| 20260509085027 | 68 | 38 | 15.0 | 19.0 | 0.00 | 0.42 | 0.00 | 94 | 1008.5 |
| 20260509084525 | 68 | 34 | 15.0 | 23.0 | 0.00 | 0.42 | 0.00 | 94 | 1008.5 |
| 20260509084026 | 68 | 30 | 16.0 | 23.0 | 0.00 | 0.42 | 0.00 | 94 | 1008.5 |
| 20260509083525 | 68 | 30 | 19.0 | 23.0 | 0.00 | 0.42 | 0.00 | 94 | 1008.4 |
| 20260509083025 | 69 | 32 | 21.0 | 25.0 | 0.00 | 0.42 | 0.00 | 92 | 1008.3 |
| 20260509081525 | 71 | 342 | 14.0 | 22.0 | 0.00 | 0.42 | 0.00 | 78 | 1008.1 |
| 20260509081026 | 72 | 341 | 12.0 | 24.0 | 0.00 | 0.42 | 0.00 | 76 | 1008.0 |
| 20260509080526 | 71 | 330 | 20.0 | 24.0 | 0.00 | 0.42 | 0.00 | 74 | 1008.1 |
| 20260509080026 | 69 | 329 | 17.0 | 19.0 | 0.00 | 0.42 | 0.00 | 85 | 1008.1 |
| 20260509075026 | 70 | 230 | 8.0 | 20.0 | 0.00 | 0.42 | 0.00 | 90 | 1007.1 |
| 20260509074526 | 70 | 216 | 15.0 | 20.0 | 0.00 | 0.42 | 0.00 | 89 | 1007.1 |
| 20260509074026 | 70 | 222 | 15.0 | 20.0 | 0.00 | 0.42 | 0.00 | 89 | 1007.2 |
| 20260509073026 | 71 | 210 | 16.0 | 29.0 | 0.00 | 0.42 | 0.00 | 87 | 1007.5 |
| 20260509072526 | 70 | 218 | 26.0 | 29.0 | 0.00 | 0.42 | 0.00 | 87 | 1007.1 |
| 20260509072025 | 69 | 205 | 23.0 | 29.0 | 0.00 | 0.42 | 0.00 | 92 | 1007.6 |
| 20260509071526 | 69 | 219 | 23.0 | 23.0 | 0.00 | 0.42 | 0.00 | 93 | 1008.2 |
| 20260509071026 | 69 | 220 | 13.0 | 22.0 | 0.00 | 0.42 | 0.00 | 94 | 1008.6 |
| 20260509065526 | 69 | 224 | 19.0 | 24.0 | 0.00 | 0.42 | 0.00 | 93 | 1009.1 |
| 20260509064026 | 69 | 230 | 20.0 | 23.0 | 0.00 | 0.42 | 0.00 | 94 | 1009.4 |
| 20260509062526 | 68 | 234 | 14.0 | 17.0 | 0.00 | 0.42 | 0.00 | 95 | 1010.1 |
| 20260509062026 | 67 | 225 | 16.0 | 16.0 | 0.00 | 0.42 | 0.00 | 96 | 1010.3 |
| 20260509061526 | 67 | 240 | 12.0 | 16.0 | 0.00 | 0.42 | 0.00 | 96 | 1010.7 |
| 20260509061026 | 67 | 234 | 12.0 | 14.0 | 0.00 | 0.42 | 0.00 | 96 | 1010.9 |
| 20260509060026 | 67 | 238 | 9.0 | 16.0 | 0.00 | 0.42 | 0.00 | 96 | 1011.0 |
| 20260509055526 | 67 | 245 | 12.0 | 16.0 | 0.00 | 0.42 | 0.00 | 96 | 1010.9 |
| 20260509055026 | 67 | 226 | 13.0 | 13.0 | 0.00 | 0.42 | 0.00 | 96 | 1010.8 |
| 20260509054527 | 67 | 231 | 10.0 | 12.0 | 0.00 | 0.42 | 0.00 | 96 | 1010.8 |
| 20260509054026 | 67 | 250 | 9.0 | 10.0 | 0.00 | 0.42 | 0.00 | 96 | 1011.0 |
| 20260509053525 | 67 | 247 | 7.0 | 10.0 | 0.00 | 0.42 | 0.00 | 95 | 1010.7 |
| 20260509053026 | 67 | 222 | 8.0 | 9.0 | 0.00 | 0.42 | 0.00 | 95 | 1010.7 |
| 20260509052526 | 67 | 242 | 6.0 | 9.0 | 0.00 | 0.42 | 0.00 | 94 | 1010.8 |
| 20260509052025 | 68 | 219 | 8.0 | 10.0 | 0.00 | 0.42 | 0.00 | 94 | 1010.6 |
| 20260509051526 | 67 | 221 | 7.0 | 10.0 | 0.00 | 0.42 | 0.00 | 94 | 1010.7 |
| 20260509051026 | 68 | 230 | 9.0 | 10.0 | 0.00 | 0.42 | 0.00 | 93 | 1011.0 |
| 20260509050526 | 68 | 203 | 5.0 | 8.0 | 0.00 | 0.42 | 0.00 | 93 | 1010.9 |
| 20260509050026 | 68 | 208 | 7.0 | 7.0 | 0.00 | 0.42 | 0.00 | 93 | 1010.9 |
| 20260509045526 | 68 | 180 | 4.0 | 5.0 | 0.00 | 0.42 | 0.42 | 92 | 1011.0 |
| 20260509045026 | 69 | 230 | 4.0 | 4.0 | 0.00 | 0.42 | 0.42 | 91 | 1011.6 |
| 20260509044526 | 68 | 272 | 1.0 | 8.0 | 0.00 | 0.42 | 0.42 | 91 | 1012.0 |
| 20260509043526 | 68 | 4 | 9.0 | 13.0 | 0.00 | 0.42 | 0.42 | 91 | 1012.4 |
| 20260509043026 | 68 | 337 | 7.0 | 20.0 | 0.00 | 0.42 | 0.42 | 92 | 1012.4 |
| 20260509042526 | 68 | 336 | 13.0 | 22.0 | 0.00 | 0.42 | 0.42 | 92 | 1012.6 |
| 20260509042026 | 67 | 334 | 20.0 | 22.0 | 0.00 | 0.42 | 0.42 | 92 | 1012.5 |
| 20260509041526 | 68 | 340 | 15.0 | 15.0 | 0.00 | 0.42 | 0.42 | 91 | 1012.0 |
| 20260509041027 | 68 | 8 | 3.0 | 6.0 | 0.00 | 0.42 | 0.42 | 92 | 1010.9 |
| 20260509040026 | 69 | 56 | 4.0 | 5.0 | 0.00 | 0.42 | 0.42 | 91 | 1010.9 |
| 20260509035526 | 69 | 53 | 3.0 | 5.0 | 0.00 | 0.42 | 0.42 | 90 | 1010.6 |
| 20260509035026 | 69 | 122 | 4.0 | 5.0 | 0.00 | 0.42 | 0.42 | 90 | 1010.3 |
| 20260509034526 | 69 | 182 | 4.0 | 7.0 | 0.00 | 0.42 | 0.42 | 90 | 1010.1 |
| 20260509034026 | 69 | 127 | 5.0 | 8.0 | 0.00 | 0.42 | 0.42 | 90 | 1010.1 |
| 20260509033526 | 69 | 136 | 5.0 | 9.0 | 0.00 | 0.42 | 0.42 | 90 | 1009.9 |
| 20260509033026 | 69 | 150 | 8.0 | 11.0 | 0.00 | 0.42 | 0.42 | 89 | 1009.8 |
| 20260509032526 | 69 | 127 | 9.0 | 11.0 | 0.00 | 0.42 | 0.42 | 89 | 1009.9 |
| 20260509031526 | 69 | 0 | 0.0 | 12.0 | 0.00 | 0.42 | 0.42 | 89 | 1009.7 |
| 20260509025526 | 70 | 106 | 12.0 | 14.0 | 0.00 | 0.42 | 0.42 | 87 | 1010.0 |
| 20260509024526 | 70 | 98 | 11.0 | 14.0 | 0.00 | 0.42 | 0.42 | 88 | 1010.3 |
| 20260509024026 | 69 | 77 | 8.0 | 14.0 | 0.00 | 0.42 | 0.42 | 88 | 1010.4 |
| 20260509023526 | 69 | 43 | 12.0 | 14.0 | 0.00 | 0.42 | 0.42 | 89 | 1010.4 |
| 20260509023026 | 69 | 48 | 9.0 | 11.0 | 0.00 | 0.42 | 0.42 | 90 | 1010.4 |
| 20260509022527 | 69 | 38 | 8.0 | 11.0 | 0.00 | 0.42 | 0.42 | 90 | 1010.3 |
| 20260509022026 | 69 | 39 | 8.0 | 11.0 | 0.00 | 0.42 | 0.42 | 90 | 1010.0 |
| 20260509021526 | 69 | 39 | 7.0 | 11.0 | 0.00 | 0.42 | 0.42 | 88 | 1009.6 |
| 20260509021026 | 69 | 97 | 9.0 | 11.0 | 0.00 | 0.42 | 0.42 | 88 | 1008.9 |
| 20260509020526 | 70 | 116 | 9.0 | 11.0 | 0.00 | 0.42 | 0.42 | 87 | 1008.6 |
| 20260509020026 | 70 | 136 | 9.0 | 11.0 | 0.00 | 0.42 | 0.42 | 87 | 1008.4 |
| 20260509015527 | 70 | 0 | 0.0 | 12.0 | 0.00 | 0.42 | 0.42 | 86 | 1008.1 |
| 20260509015026 | 70 | 0 | 0.0 | 12.0 | 0.00 | 0.42 | 0.42 | 86 | 1008.0 |
| 20260509014526 | 70 | 146 | 11.0 | 12.0 | 0.00 | 0.42 | 0.42 | 85 | 1008.0 |
| 20260509014026 | 70 | 136 | 10.0 | 12.0 | 0.00 | 0.42 | 0.42 | 84 | 1008.1 |
| 20260509013526 | 71 | 157 | 9.0 | 12.0 | 0.00 | 0.42 | 0.42 | 83 | 1008.1 |
| 20260509013026 | 71 | 0 | 0.0 | 11.0 | 0.00 | 0.42 | 0.42 | 83 | 1008.1 |
| 20260509012026 | 71 | 181 | 9.0 | 11.0 | 0.00 | 0.42 | 0.42 | 81 | 1008.1 |
| 20260509011526 | 72 | 188 | 10.0 | 11.0 | 0.00 | 0.42 | 0.42 | 80 | 1008.3 |
| 20260509011026 | 72 | 178 | 9.0 | 11.0 | 0.00 | 0.42 | 0.42 | 80 | 1008.5 |
| 20260509010526 | 72 | 167 | 5.0 | 11.0 | 0.00 | 0.42 | 0.42 | 79 | 1008.5 |
| 20260509010026 | 73 | 166 | 6.0 | 9.0 | 0.00 | 0.42 | 0.42 | 79 | 1008.5 |
| 20260509005526 | 73 | 178 | 5.0 | 9.0 | 0.00 | 0.42 | 0.42 | 79 | 1008.6 |
| 20260509004526 | 73 | 197 | 9.0 | 10.0 | 0.00 | 0.42 | 0.42 | 78 | 1008.7 |
| 20260509003526 | 73 | 200 | 7.0 | 11.0 | 0.00 | 0.42 | 0.42 | 77 | 1008.6 |
| 20260509003026 | 73 | 173 | 11.0 | 11.0 | 0.00 | 0.42 | 0.42 | 76 | 1008.5 |
| 20260509002526 | 74 | 170 | 8.0 | 11.0 | 0.00 | 0.42 | 0.42 | 75 | 1008.4 |
| 20260509002026 | 74 | 172 | 8.0 | 11.0 | 0.00 | 0.42 | 0.42 | 75 | 1008.4 |
| 20260509001526 | 74 | 170 | 8.0 | 11.0 | 0.00 | 0.42 | 0.42 | 74 | 1008.4 |
| 20260509001027 | 74 | 197 | 10.0 | 11.0 | 0.00 | 0.42 | 0.42 | 74 | 1008.3 |
| 20260509000526 | 74 | 195 | 9.0 | 11.0 | 0.00 | 0.42 | 0.42 | 73 | 1008.2 |
| 20260509000026 | 75 | 157 | 11.0 | 12.0 | 0.00 | 0.42 | 0.42 | 72 | 1008.1 |
| 20260508235026 | 75 | 177 | 12.0 | 14.0 | 0.00 | 0.42 | 0.42 | 71 | 1008.0 |
| 20260508234526 | 75 | 180 | 11.0 | 14.0 | 0.00 | 0.42 | 0.42 | 70 | 1008.0 |
| 20260508234026 | 75 | 188 | 11.0 | 14.0 | 0.00 | 0.42 | 0.42 | 69 | 1008.0 |
| 20260508233526 | 75 | 179 | 10.0 | 14.0 | 0.00 | 0.42 | 0.42 | 69 | 1008.2 |
| 20260508232526 | 75 | 160 | 8.0 | 13.0 | 0.00 | 0.42 | 0.42 | 69 | 1008.3 |
| 20260508232027 | 76 | 175 | 11.0 | 13.0 | 0.00 | 0.42 | 0.42 | 68 | 1008.4 |
| 20260508231526 | 76 | 171 | 11.0 | 13.0 | 0.00 | 0.42 | 0.42 | 67 | 1008.4 |
| 20260508231026 | 76 | 143 | 7.0 | 12.0 | 0.00 | 0.42 | 0.42 | 68 | 1008.4 |
| 20260508230526 | 76 | 203 | 8.0 | 12.0 | 0.00 | 0.42 | 0.42 | 68 | 1008.4 |
| 20260508230026 | 76 | 201 | 10.0 | 12.0 | 0.00 | 0.42 | 0.42 | 68 | 1008.5 |
| 20260508225526 | 76 | 169 | 7.0 | 13.0 | 0.00 | 0.42 | 0.42 | 67 | 1008.5 |
| 20260508225026 | 76 | 188 | 10.0 | 13.0 | 0.00 | 0.42 | 0.42 | 68 | 1008.5 |
| 20260508224526 | 76 | 191 | 9.0 | 13.0 | 0.00 | 0.42 | 0.42 | 68 | 1008.5 |
| 20260508224026 | 76 | 169 | 6.0 | 13.0 | 0.00 | 0.42 | 0.42 | 68 | 1008.5 |
| 20260508223026 | 77 | 184 | 7.0 | 13.0 | 0.00 | 0.42 | 0.42 | 69 | 1008.6 |